PY3MO-11 Weather Reports


time (UTC)temp
C
wind
direction
speed
KPH
gust
KPH
rain 1hr
cm
rain 24hr
cm
rain mn
cm
humidity
%
barometer
mb
20260508022355 21 214 4.8 14.5 0.00 0.00 0.00 62 1004.4
20260508021854 21 226 9.7 14.5 0.00 0.00 0.00 62 1004.7
20260508021354 21 227 6.4 14.5 0.00 0.00 0.00 62 1004.6
20260508020857 21 200 8.0 14.5 0.00 0.00 0.00 62 1004.8
20260508020356 21 190 6.4 14.5 0.00 0.00 0.00 62 1005.1
20260508015856 21 216 4.8 14.5 0.00 0.00 0.00 62 1005.2
20260508015356 21 244 6.4 14.5 0.00 0.00 0.00 61 1005.3
20260508014855 21 207 9.7 14.5 0.00 0.00 0.00 62 1005.3
20260508014354 21 188 3.2 19.3 0.00 0.00 0.00 62 1005.5
20260508013856 21 233 8.0 19.3 0.00 0.00 0.00 62 1005.4
20260508013356 21 208 8.0 11.3 0.00 0.00 0.00 62 1005.5
20260508012856 21 224 4.8 27.4 0.00 0.00 0.00 62 1005.5
20260508012356 22 247 6.4 27.4 0.00 0.00 0.00 62 1005.5
20260508011856 21 193 6.4 19.3 0.00 0.00 0.00 62 1005.3
20260508011355 21 222 14.5 19.3 0.00 0.00 0.00 62 1005.4
20260508010855 21 256 8.0 12.9 0.00 0.00 0.00 63 1005.4
20260508010355 21 192 4.8 9.7 0.00 0.00 0.00 63 1005.7
20260508005855 21 205 4.8 14.5 0.00 0.00 0.00 63 1005.5
20260508005355 21 214 9.7 14.5 0.00 0.00 0.00 63 1005.5
20260508004855 21 198 4.8 8.0 0.00 0.00 0.00 63 1005.7
20260508004354 21 230 1.6 6.4 0.00 0.00 0.00 63 1005.4
20260508003856 21 260 4.8 6.4 0.00 0.00 0.00 63 1005.4
20260508003356 21 261 1.6 6.4 0.00 0.00 0.00 63 1005.5
20260508002856 21 251 3.2 6.4 0.00 0.00 0.00 63 1005.7
20260508002356 21 265 3.2 6.4 0.00 0.00 0.00 63 1005.5
20260508001856 21 248 4.8 6.4 0.00 0.00 0.00 63 1005.7
20260508001356 21 190 1.6 6.4 0.00 0.00 0.00 64 1005.7
20260508000855 21 149 0.0 6.4 0.00 0.00 0.00 64 1005.6
20260508000357 21 203 1.6 6.4 0.00 0.00 0.00 63 1005.5
20260507235855 21 209 0.0 6.4 0.00 0.00 0.00 63 1005.5
20260507235355 21 217 4.8 14.5 0.00 0.00 0.00 63 1005.3
20260507234855 21 252 3.2 14.5 0.00 0.00 0.00 63 1005.5
20260507234356 21 247 9.7 14.5 0.00 0.00 0.00 63 1005.6
20260507233856 21 224 4.8 6.4 0.00 0.00 0.00 62 1005.6
20260507233356 21 241 3.2 6.4 0.00 0.00 0.00 62 1005.5
20260507232856 21 259 4.8 4.8 0.00 0.00 0.00 62 1005.5
20260507232356 22 194 1.6 6.4 0.00 0.00 0.00 62 1005.5
20260507231856 22 176 1.6 6.4 0.00 0.00 0.00 62 1005.4
20260507231355 22 209 0.0 6.4 0.00 0.00 0.00 62 1005.3
20260507230856 22 228 0.0 6.4 0.00 0.00 0.00 61 1005.5
20260507230356 22 225 1.6 11.3 0.00 0.00 0.00 61 1005.3
20260507225855 22 243 1.6 11.3 0.00 0.00 0.00 61 1005.5
20260507225355 22 277 3.2 9.7 0.00 0.00 0.00 61 1005.5
20260507224855 22 249 4.8 9.7 0.00 0.00 0.00 61 1005.4
20260507224355 22 276 3.2 6.4 0.00 0.00 0.00 61 1005.4
20260507223856 22 338 3.2 6.4 0.00 0.00 0.00 61 1005.4
20260507223357 22 244 1.6 6.4 0.00 0.00 0.00 60 1005.6
20260507222855 22 249 3.2 9.7 0.00 0.00 0.00 57 1005.6
20260507222355 22 278 1.6 9.7 0.00 0.00 0.00 56 1005.6
20260507221855 22 234 1.6 8.0 0.00 0.00 0.00 56 1005.6
20260507221355 22 225 1.6 11.3 0.00 0.00 0.00 55 1005.8
20260507220856 22 246 3.2 11.3 0.00 0.00 0.00 55 1005.7
20260507220356 22 216 4.8 11.3 0.00 0.00 0.00 54 1005.7
20260507215856 23 209 0.0 9.7 0.00 0.00 0.00 54 1005.6
20260507215356 23 254 1.6 11.3 0.00 0.00 0.00 54 1005.7
20260507214856 23 228 4.8 11.3 0.00 0.00 0.00 54 1005.6
20260507214356 23 201 1.6 8.0 0.00 0.00 0.00 54 1005.7
20260507213855 23 239 3.2 8.0 0.00 0.00 0.00 54 1005.7
20260507213355 23 240 3.2 8.0 0.00 0.00 0.00 55 1005.8
20260507212855 23 219 1.6 4.8 0.00 0.00 0.00 55 1005.8
20260507212355 23 247 1.6 6.4 0.00 0.00 0.00 55 1005.9
20260507211855 23 252 3.2 6.4 0.00 0.00 0.00 55 1005.9
20260507211355 23 231 1.6 6.4 0.00 0.00 0.00 55 1006.0
20260507210857 23 233 3.2 8.0 0.00 0.00 0.00 55 1006.0
20260507210356 23 248 4.8 8.0 0.00 0.00 0.00 55 1006.1
20260507205856 23 240 4.8 9.7 0.00 0.00 0.00 55 1006.2
20260507205356 23 211 4.8 9.7 0.00 0.00 0.00 55 1006.2
20260507204856 23 223 3.2 9.7 0.00 0.00 0.00 55 1006.0
20260507204355 23 227 3.2 4.8 0.00 0.00 0.00 55 1006.0
20260507203857 23 245 1.6 8.0 0.00 0.00 0.00 55 1005.9
20260507203356 23 250 3.2 9.7 0.00 0.00 0.00 54 1006.0
20260507202856 24 251 6.4 9.7 0.00 0.00 0.00 54 1006.0
20260507202357 24 244 4.8 9.7 0.00 0.00 0.00 54 1006.0
20260507201857 24 171 4.8 9.7 0.00 0.00 0.00 54 1005.8
20260507201356 24 210 1.6 14.5 0.00 0.00 0.00 53 1005.9
20260507200856 25 260 4.8 14.5 0.00 0.00 0.00 52 1006.0
20260507200355 25 221 8.0 14.5 0.00 0.00 0.00 52 1006.0
20260507195857 25 195 9.7 14.5 0.00 0.00 0.00 50 1006.0
20260507195356 26 232 4.8 16.1 0.00 0.00 0.00 50 1005.7
20260507194856 26 243 4.8 16.1 0.00 0.00 0.00 50 1005.9
20260507194356 26 199 8.0 14.5 0.00 0.00 0.00 50 1006.0
20260507193856 26 216 8.0 19.3 0.00 0.00 0.00 50 1006.0
20260507193355 25 195 9.7 19.3 0.00 0.00 0.00 51 1006.2
20260507192855 25 214 6.4 14.5 0.00 0.00 0.00 51 1006.0
20260507192355 25 236 4.8 14.5 0.00 0.00 0.00 51 1006.1
20260507191855 25 243 8.0 16.1 0.00 0.00 0.00 51 1005.8
20260507191356 25 256 4.8 25.7 0.00 0.00 0.00 51 1005.9
20260507190856 25 236 9.7 25.7 0.00 0.00 0.00 50 1006.0
20260507190356 25 173 8.0 17.7 0.00 0.00 0.00 50 1005.9
20260507185855 25 221 4.8 17.7 0.00 0.00 0.00 50 1005.7
20260507185356 25 289 6.4 19.3 0.00 0.00 0.00 49 1005.6
20260507184855 25 305 12.9 19.3 0.00 0.00 0.00 49 1005.7
20260507184355 25 245 9.7 17.7 0.00 0.00 0.00 49 1005.5
20260507183855 25 210 8.0 22.5 0.00 0.00 0.00 49 1005.5
20260507183357 25 208 9.7 22.5 0.00 0.00 0.00 48 1005.4
20260507182857 25 224 4.8 14.5 0.00 0.00 0.00 48 1005.4
20260507182356 25 232 8.0 20.9 0.00 0.00 0.00 47 1005.5
20260507181856 25 256 6.4 24.1 0.00 0.00 0.00 45 1005.4
20260507181356 26 252 14.5 24.1 0.00 0.00 0.00 44 1005.6
20260507180856 26 239 16.1 30.6 0.00 0.00 0.00 44 1005.6
20260507180356 26 236 12.9 30.6 0.00 0.00 0.00 43 1005.8
20260507175856 26 237 16.1 30.6 0.00 0.00 0.00 43 1005.7
20260507175355 26 241 14.5 19.3 0.00 0.00 0.00 44 1005.8
20260507174855 26 225 12.9 19.3 0.00 0.00 0.00 44 1005.5
20260507174355 26 248 9.7 22.5 0.00 0.00 0.00 45 1005.6
20260507173857 26 338 8.0 22.5 0.00 0.00 0.00 45 1005.7
20260507173357 25 282 9.7 17.7 4.67 0.00 0.00 47 1005.6
20260507172857 25 281 8.0 17.7 4.67 0.00 0.00 48 1005.8
20260507172355 25 278 9.7 14.5 0.00 0.00 0.00 48 1005.8
20260507171856 25 287 11.3 17.7 0.00 0.00 0.00 47 1005.7
20260507171356 25 274 6.4 24.1 0.00 0.00 0.00 47 1005.8
20260507170856 26 266 4.8 24.1 0.00 0.00 0.00 45 1005.9
20260507170356 26 260 19.3 24.1 0.00 0.00 0.00 44 1006.1
20260507165856 26 253 6.4 14.5 0.00 0.00 0.00 46 1005.9
20260507165356 25 270 9.7 22.5 0.00 0.00 0.00 47 1006.2
20260507164855 25 271 9.7 22.5 0.00 0.00 0.00 47 1006.3
20260507164355 25 265 14.5 24.1 0.00 0.00 0.00 47 1006.4
20260507163857 25 70 6.4 77.2 0.00 0.00 0.00 47 1006.5
20260507163357 25 69 4.8 77.2 0.00 0.00 0.00 48 1006.7
20260507162857 26 83 6.4 77.2 0.00 0.00 0.00 48 1006.5
20260507162356 26 181 12.9 19.3 0.00 0.00 0.00 47 1006.3
20260507161856 26 269 9.7 19.3 0.00 0.00 0.00 45 1006.8
20260507161356 26 269 9.7 19.3 0.00 0.00 0.00 45 1006.8
20260507160856 26 261 9.7 19.3 0.00 0.00 0.00 45 1006.8
20260507160356 26 232 9.7 27.4 0.00 0.00 0.00 45 1006.7
20260507155856 26 220 14.5 27.4 0.00 0.00 0.00 45 1006.7
20260507155357 26 235 16.1 27.4 0.00 0.00 0.00 46 1006.5
20260507154856 26 272 11.3 20.9 0.00 0.00 0.00 50 1007.1
20260507154356 26 291 9.7 20.9 0.00 0.00 0.00 50 1006.9
20260507153856 25 259 14.5 20.9 0.00 0.00 0.00 52 1007.2
20260507153356 25 267 6.4 22.5 0.00 0.00 0.00 53 1007.1
20260507152856 26 272 9.7 22.5 0.00 0.00 0.00 53 1007.2
20260507152356 26 228 9.7 22.5 0.00 0.00 0.00 53 1007.3
20260507151858 26 240 16.1 22.5 0.00 0.00 0.00 53 1007.4
20260507151356 25 237 8.0 20.9 0.00 0.00 0.00 53 1007.6
20260507150857 25 201 9.7 20.9 0.00 0.00 0.00 54 1007.5
20260507150357 25 224 9.7 22.5 0.00 0.00 0.00 54 1007.6
20260507145857 25 229 8.0 25.7 0.00 0.00 0.00 54 1007.8
20260507145357 25 221 14.5 25.7 0.00 0.00 0.00 55 1007.9
20260507144856 25 244 9.7 25.7 0.00 0.00 0.00 57 1008.0
20260507144356 25 256 9.7 25.7 0.00 0.00 0.00 57 1008.2
20260507143856 25 235 4.8 19.3 0.00 0.00 0.00 60 1008.5
20260507143356 24 245 9.7 19.3 0.00 0.00 0.00 60 1008.7
20260507142856 23 149 14.5 20.9 0.00 0.00 0.00 61 1009.2
20260507142356 23 231 9.7 20.9 0.00 0.00 0.00 62 1009.2
20260507141855 22 265 9.7 16.1 0.00 0.00 0.00 63 1009.2
20260507141355 22 296 6.4 11.3 0.00 0.00 0.00 64 1009.2
20260507140857 22 298 9.7 20.9 0.00 0.00 0.00 64 1009.2
20260507140357 22 272 8.0 20.9 0.00 0.00 0.00 64 1009.5
20260507135857 22 270 9.7 14.5 0.00 0.00 0.00 64 1009.7
20260507135357 22 254 9.7 14.5 0.00 0.00 0.00 64 1009.9
20260507134856 22 209 6.4 24.1 0.00 0.00 0.00 64 1010.0
20260507134356 22 214 6.4 24.1 0.00 0.00 0.00 64 1010.1
20260507133856 22 224 17.7 24.1 0.00 0.00 0.00 70 1010.0
20260507133356 22 217 9.7 24.1 0.00 0.00 0.00 70 1010.1
20260507132856 21 213 9.7 24.1 0.00 0.00 0.00 70 1010.5
20260507132356 21 226 9.7 22.5 0.00 0.00 0.00 70 1010.6
20260507131855 21 263 12.9 19.3 0.00 0.00 0.00 71 1010.4
20260507131355 21 282 9.7 14.5 0.00 0.00 0.00 70 1010.5
20260507130900 22 274 6.4 19.3 0.00 0.00 0.00 70 1010.9
20260507130357 22 283 6.4 19.3 0.00 0.00 0.00 70 1010.8
20260507125857 22 277 14.5 19.3 0.00 0.00 0.00 70 1010.7
20260507125357 22 224 6.4 17.7 0.00 0.00 0.00 70 1010.8
20260507124857 22 236 9.7 17.7 0.00 0.00 0.00 70 1011.0
20260507124356 22 264 9.7 14.5 0.00 0.00 0.00 71 1011.0
20260507123856 21 254 9.7 14.5 0.00 0.00 0.00 71 1010.8
20260507123356 21 227 9.7 14.5 0.00 0.00 0.00 71 1010.9
20260507122856 21 260 9.7 14.5 0.00 0.00 0.00 72 1010.8
20260507122356 21 285 11.3 14.5 0.00 0.00 0.00 72 1011.0
20260507121855 21 251 9.7 16.1 0.00 0.00 0.00 72 1011.0
20260507121355 21 197 6.4 16.1 0.00 0.00 0.00 72 1011.1
20260507120857 21 175 6.4 16.1 0.00 0.00 0.00 72 1011.1
20260507120357 21 203 8.0 17.7 0.00 0.00 0.00 72 1011.1
20260507115857 21 198 4.8 22.5 0.00 0.00 0.00 72 1011.3
20260507115357 21 200 4.8 22.5 0.00 0.00 0.00 72 1011.2
20260507114855 21 221 11.3 17.7 0.00 0.00 0.00 72 1011.1
20260507114355 21 219 9.7 17.7 0.00 0.00 0.00 72 1010.8
20260507113857 21 205 9.7 17.7 0.00 0.00 0.00 72 1010.9
20260507113357 21 207 11.3 19.3 0.00 0.00 0.00 72 1010.8
20260507112857 21 240 9.7 19.3 0.00 0.00 0.00 72 1011.0
20260507112357 21 236 8.0 17.7 0.00 0.00 0.00 72 1011.0
20260507111857 21 206 9.7 17.7 0.00 0.00 0.00 73 1010.8
20260507111355 21 223 9.7 14.5 0.00 0.00 0.00 75 1010.9
20260507110857 20 207 9.7 14.5 0.00 0.00 0.00 75 1011.1
20260507110357 20 222 4.8 11.3 0.00 0.00 0.00 76 1011.3
20260507105857 20 233 8.0 11.3 0.00 0.00 0.00 77 1011.3
20260507105357 20 249 4.8 9.7 0.00 0.00 0.00 77 1011.3